Starlink 30566

operational
NORAD ID: 58054 Int'l Des: 2023-158 Owner: SPXS Country: US Constellation: starlink
LEOCIRCULAR

关于 Starlink 30566

正在加载描述...

实时位置

正在加载3D地球...

即将过境

高度历史

Altitude vs Time

uPlot chart will show altitude changes over time

两行轨道根数

1 58054U 23158D 25352.81378138 -.00025750 00000-0 -18989-2 0 9995
2 58054 43.0033 109.9476 0002512 16.2827 343.8096 15.02517037121366
Epoch: Dec 18, 2025 • Age: 21 hours

当前状态

高度 559.6 km
速度 7.58 km/s
星下点 12.80°N, 72.26°W
发射日期 Oct 13, 2023
运行时间 2.1 years
类型 internet

技术详情

分类 Payload
质量 730.00 kg
干质量 700.00 kg
总质量 730.00 kg
长度 0.30 m
直径 4.10 m
跨度 29.00 m
形状 Box + pan
制造商 SPXS
平台类型 Starlink V2M
阶段状态 In Orbit
所有者/国家 SPXS/US

大型星座

Loading constellations...